Location: Schoeneck
(50.3760°N, 12.3330°E)
Time: 17:37:05
(UTC+02:00)

ISS - Visible Passes

Search period start: 19 September 2018 00:00
Search period end: 29 September 2018 00:00
Orbit: 402 x 408 km, 51.6° (Epoch: 20 September)

Date Brightness Start Highest point End Pass type
(mag) Time Alt. Az. Time Alt. Az. Time Alt. Az.
22 Sep -1.9 20:27:02 10° S 20:28:33 16° SSE 20:28:33 16° SSE visible
23 Sep -2.3 21:10:06 10° SW 21:11:54 27° SSW 21:11:54 27° SSW visible
24 Sep -2.8 20:18:27 10° SSW 20:21:21 29° SSE 20:22:19 24° ESE visible
24 Sep -1.0 21:54:20 10° WSW 21:55:01 15° WSW 21:55:01 15° WSW visible
25 Sep -3.7 21:02:19 10° WSW 21:05:16 64° SSW 21:05:16 64° SSW visible
26 Sep -3.6 20:10:24 10° SW 20:13:37 51° SSE 20:15:25 23° E visible
26 Sep -1.4 21:46:48 10° W 21:48:06 22° W 21:48:06 22° W visible
27 Sep -3.9 20:54:41 10° W 20:58:00 81° N 20:58:08 78° NNE visible
28 Sep -3.9 20:02:37 10° WSW 20:05:55 81° SSE 20:08:07 19° ENE visible
28 Sep -1.6 21:39:13 10° W 21:40:46 25° WNW 21:40:46 25° WNW visible
